contact:dominique.lefevre@mio.osupytheas.fr, maurice.libes@osupytheas.fr, didier.mallarino@osupytheas.fr
Project:EMSO http://www.emso-fr.org/EMSO-France
Depth: 2436.0 m
Title:EMSO Ligure Ouest : Data MII capteur AQUADOPP
Date,Latitude,Longitude,X_East,Y_North,Z_Up,Amplitude_X,Amplitude_Y,Amplitude_Z,Batterie,SoundSpeed,Heading,Pitch,Roll,Pressure,TIS,Speed,Direction
, degrees North, degrees East, m.s-1, m.s-1,m.s-1, 1, 1, 1, Volt, m.s-1, degree, degree, degree, dbar, degree_C, m.s-1, degree
2022-11-07T00:04:03,42.805,6.029,0.012,-0.021,0.0,102.0,102.0,100.0,13.4,1505.2,331.6,-0.8,1.8,2471.079,13.28,0.024,150.3
2022-11-07T00:07:03,42.805,6.029,-0.001,0.0,0.004,101.0,102.0,101.0,13.3,1505.2,319.3,-0.8,1.8,2471.074,13.28,0.001,270.0
2022-11-07T00:10:03,42.805,6.029,0.022,-0.034,0.0,103.0,103.0,101.0,13.3,1505.2,322.5,-0.8,1.8,2471.047,13.28,0.04,147.1
2022-11-07T00:13:03,42.805,6.029,0.024,-0.034,0.011,102.0,102.0,101.0,13.4,1505.2,321.1,-0.8,1.8,2471.041,13.28,0.041,144.8
2022-11-07T00:16:03,42.805,6.029,0.001,-0.037,-0.036,102.0,103.0,100.0,13.3,1505.2,321.7,-0.8,1.9,2471.026,13.29,0.037,178.5
2022-11-07T00:19:03,42.805,6.029,-0.003,-0.004,0.02,102.0,102.0,101.0,13.3,1505.2,329.7,-0.7,1.8,2471.015,13.29,0.005,216.9
2022-11-07T00:22:03,42.805,6.029,0.029,0.007,-0.001,103.0,102.0,100.0,13.4,1505.2,321.5,-0.8,1.8,2471.039,13.29,0.029,76.4
2022-11-07T00:25:03,42.805,6.029,0.008,-0.018,0.007,103.0,103.0,100.0,13.4,1505.2,327.0,-0.7,1.8,2471.002,13.29,0.019,156.0
2022-11-07T00:28:03,42.805,6.029,0.006,-0.004,0.016,103.0,102.0,101.0,13.3,1505.2,335.3,-0.8,1.8,2471.03,13.29,0.007,123.7
2022-11-07T00:31:03,42.805,6.029,0.022,-0.027,0.021,101.0,102.0,102.0,13.4,1505.2,330.2,-0.8,1.8,2471.06,13.29,0.034,140.8
2022-11-07T00:34:03,42.805,6.029,0.023,-0.013,0.005,102.0,102.0,101.0,13.3,1505.2,325.7,-0.7,1.8,2471.001,13.29,0.026,119.5
2022-11-07T00:37:03,42.805,6.029,0.008,-0.024,-0.015,101.0,102.0,101.0,13.3,1505.2,327.1,-0.8,1.8,2471.011,13.29,0.025,161.6
2022-11-07T00:40:03,42.805,6.029,0.018,-0.011,0.02,102.0,101.0,100.0,13.4,1505.2,327.7,-0.8,1.8,2471.041,13.29,0.021,121.4
2022-11-07T00:43:03,42.805,6.029,0.036,-0.01,0.027,103.0,102.0,101.0,13.3,1505.2,319.1,-0.8,1.9,2471.04,13.29,0.037,105.5
2022-11-07T00:46:03,42.805,6.029,0.018,-0.029,-0.012,102.0,102.0,101.0,13.4,1505.2,330.4,-0.8,1.8,2471.036,13.29,0.034,148.2
2022-11-07T00:49:03,42.805,6.029,0.006,-0.024,-0.012,102.0,102.0,101.0,13.3,1505.2,328.3,-0.8,1.8,2471.052,13.29,0.024,166.0
2022-11-07T00:52:03,42.805,6.029,0.008,-0.016,0.016,102.0,102.0,100.0,13.3,1505.2,329.0,-0.7,1.8,2471.037,13.29,0.017,153.4
2022-11-07T00:55:03,42.805,6.029,0.024,-0.019,0.007,101.0,102.0,101.0,13.4,1505.2,330.4,-0.8,1.8,2471.062,13.29,0.03,128.4
2022-11-07T00:58:03,42.805,6.029,0.039,-0.011,-0.011,103.0,101.0,100.0,13.3,1505.2,316.3,-0.8,1.8,2470.993,13.29,0.04,105.7
2022-11-07T01:04:03,42.805,6.029,0.056,-0.032,0.004,103.0,103.0,102.0,13.4,1505.2,323.7,-0.8,1.8,2471.097,13.28,0.064,119.7
2022-11-07T01:07:03,42.805,6.029,0.046,-0.037,0.018,102.0,102.0,101.0,13.4,1505.2,322.0,-0.8,1.8,2471.065,13.28,0.059,128.8
2022-11-07T01:10:03,42.805,6.029,0.029,-0.014,0.03,102.0,101.0,101.0,13.4,1505.2,324.5,-0.8,1.8,2471.066,13.28,0.032,115.8
2022-11-07T01:13:03,42.805,6.029,0.03,-0.006,0.024,101.0,103.0,101.0,13.4,1505.2,327.5,-0.8,1.8,2471.045,13.28,0.03,101.3
2022-11-07T01:16:03,42.805,6.029,0.012,-0.011,0.01,103.0,101.0,101.0,13.4,1505.2,333.7,-0.7,1.9,2471.015,13.28,0.016,132.5
2022-11-07T01:19:03,42.805,6.029,0.014,-0.025,0.016,103.0,102.0,101.0,13.4,1505.2,320.7,-0.8,1.8,2471.059,13.29,0.028,150.7
2022-11-07T01:22:03,42.805,6.029,-0.002,-0.02,0.014,102.0,102.0,100.0,13.4,1505.2,325.5,-0.8,1.8,2471.053,13.29,0.02,185.7
2022-11-07T01:25:03,42.805,6.029,0.047,-0.027,0.0,102.0,102.0,101.0,13.4,1505.2,325.6,-0.8,1.8,2471.048,13.29,0.054,119.9
2022-11-07T01:28:03,42.805,6.029,-0.003,-0.008,-0.024,102.0,102.0,101.0,13.4,1505.2,319.4,-0.8,1.8,2471.051,13.29,0.008,200.6
2022-11-07T01:31:03,42.805,6.029,0.018,0.009,0.076,102.0,103.0,102.0,13.4,1505.2,327.2,-0.8,1.8,2471.074,13.29,0.02,63.4
2022-11-07T01:34:03,42.805,6.029,-0.004,0.002,0.018,104.0,100.0,101.0,13.4,1505.2,324.8,-0.8,1.8,2470.998,13.29,0.004,296.6
2022-11-07T01:37:03,42.805,6.029,0.021,-0.025,-0.016,103.0,102.0,100.0,13.4,1505.2,333.4,-0.8,1.8,2471.024,13.29,0.032,140.0
2022-11-07T01:40:03,42.805,6.029,-0.003,-0.008,0.02,103.0,102.0,101.0,13.3,1505.2,331.6,-0.7,1.9,2471.061,13.29,0.008,200.6
2022-11-07T01:43:03,42.805,6.029,0.013,-0.01,-0.013,102.0,102.0,101.0,13.4,1505.2,321.5,-0.8,1.8,2471.044,13.29,0.016,127.6
2022-11-07T01:46:03,42.805,6.029,0.011,-0.02,-0.002,103.0,102.0,100.0,13.3,1505.2,330.7,-0.8,1.8,2471.075,13.29,0.022,151.2
2022-11-07T01:49:03,42.805,6.029,0.018,-0.04,0.012,103.0,102.0,101.0,13.3,1505.2,323.2,-0.7,1.8,2471.041,13.29,0.043,155.8
2022-11-07T01:52:03,42.805,6.029,0.016,-0.026,-0.006,104.0,103.0,101.0,13.4,1505.2,323.6,-0.8,1.9,2471.066,13.29,0.03,148.4
2022-11-07T01:55:03,42.805,6.029,0.033,-0.023,-0.005,102.0,102.0,102.0,13.4,1505.2,321.1,-0.8,1.8,2471.05,13.29,0.04,124.9
2022-11-07T01:58:03,42.805,6.029,0.002,-0.021,-0.024,102.0,102.0,101.0,13.3,1505.2,318.2,-0.7,1.8,2471.059,13.29,0.021,174.6
2022-11-07T02:04:03,42.805,6.029,0.001,-0.014,-0.006,102.0,103.0,101.0,13.4,1505.2,335.0,-0.8,1.8,2471.142,13.28,0.014,175.9
2022-11-07T02:07:03,42.805,6.029,0.002,-0.018,-0.002,102.0,104.0,101.0,13.4,1505.2,329.4,-0.8,1.8,2471.13,13.28,0.018,173.7
2022-11-07T02:10:03,42.805,6.029,0.012,-0.013,-0.008,102.0,102.0,101.0,13.4,1505.2,321.6,-0.8,1.8,2471.101,13.28,0.017,137.3
2022-11-07T02:13:03,42.805,6.029,0.01,-0.029,0.004,101.0,103.0,102.0,13.4,1505.2,328.1,-0.8,1.8,2471.089,13.29,0.03,161.0
2022-11-07T02:16:03,42.805,6.029,0.03,-0.047,0.005,101.0,103.0,101.0,13.4,1505.2,328.3,-0.8,1.8,2471.079,13.29,0.055,147.4
2022-11-07T02:19:03,42.805,6.029,0.029,-0.024,0.036,105.0,102.0,100.0,13.4,1505.2,328.6,-0.8,1.8,2471.069,13.29,0.037,129.6
2022-11-07T02:22:03,42.805,6.029,0.009,-0.023,-0.006,102.0,103.0,102.0,13.4,1505.2,320.1,-0.8,1.8,2471.045,13.29,0.024,158.6
2022-11-07T02:25:03,42.805,6.029,0.013,-0.013,0.005,103.0,102.0,102.0,13.4,1505.2,328.3,-0.8,1.8,2471.088,13.29,0.018,135.0
2022-11-07T02:28:03,42.805,6.029,0.024,-0.018,0.004,102.0,102.0,101.0,13.3,1505.2,323.2,-0.8,1.8,2471.033,13.29,0.03,126.9
2022-11-07T02:31:03,42.805,6.029,0.023,-0.02,0.001,103.0,102.0,101.0,13.4,1505.2,321.3,-0.8,1.8,2471.074,13.29,0.03,131.0
2022-11-07T02:34:03,42.805,6.029,0.045,-0.02,0.016,102.0,103.0,101.0,13.4,1505.2,320.2,-0.8,1.8,2471.086,13.29,0.049,114.0
2022-11-07T02:37:03,42.805,6.029,0.013,-0.013,0.011,100.0,103.0,102.0,13.3,1505.2,326.4,-0.7,1.8,2471.099,13.29,0.018,135.0
2022-11-07T02:40:03,42.805,6.029,0.032,-0.014,-0.023,102.0,103.0,101.0,13.4,1505.2,322.3,-0.7,1.8,2471.099,13.29,0.034,113.6
2022-11-07T02:43:03,42.805,6.029,0.018,-0.029,-0.032,103.0,102.0,101.0,13.4,1505.2,328.6,-0.8,1.8,2471.081,13.29,0.034,148.2
2022-11-07T02:46:03,42.805,6.029,0.014,-0.036,-0.019,101.0,102.0,102.0,13.3,1505.2,326.6,-0.7,1.8,2471.083,13.29,0.038,158.8
2022-11-07T02:49:03,42.805,6.029,-0.002,-0.014,0.015,103.0,102.0,101.0,13.3,1505.2,329.0,-0.7,1.8,2471.116,13.29,0.014,188.1
2022-11-07T02:52:03,42.805,6.029,0.0,-0.021,-0.022,102.0,102.0,101.0,13.3,1505.2,320.1,-0.8,1.7,2471.115,13.29,0.021,180.0
2022-11-07T02:55:03,42.805,6.029,0.0,-0.031,-0.007,102.0,103.0,101.0,13.4,1505.2,328.5,-0.7,1.8,2471.114,13.29,0.03,180.0
2022-11-07T02:58:03,42.805,6.029,0.005,-0.011,0.009,102.0,103.0,101.0,13.4,1505.2,331.1,-0.7,1.8,2471.107,13.29,0.012,155.6
2022-11-07T04:04:02,42.805,6.029,0.003,-0.019,0.011,102.0,102.0,101.0,13.4,1505.1,318.4,-0.8,1.8,2471.658,13.27,0.019,171.0
2022-11-07T04:07:03,42.805,6.029,-0.008,-0.008,-0.014,103.0,101.0,101.0,13.4,1505.2,332.4,-0.8,1.9,2471.515,13.28,0.011,225.0
2022-11-07T04:10:03,42.805,6.029,0.003,-0.032,-0.023,102.0,102.0,101.0,13.4,1505.2,320.2,-0.8,1.9,2471.469,13.28,0.032,174.6
2022-11-07T04:13:03,42.805,6.029,0.008,-0.002,0.017,102.0,102.0,101.0,13.3,1505.2,331.3,-0.8,1.8,2471.406,13.28,0.008,104.0
2022-11-07T04:16:03,42.805,6.029,0.006,-0.006,-0.003,102.0,103.0,100.0,13.4,1505.2,328.3,-0.8,1.8,2471.366,13.28,0.008,135.0
2022-11-07T04:19:03,42.805,6.029,0.009,-0.021,-0.009,102.0,103.0,100.0,13.4,1505.2,320.6,-0.8,1.8,2471.335,13.28,0.022,156.8
2022-11-07T04:22:03,42.805,6.029,0.009,-0.015,0.0,102.0,102.0,101.0,13.3,1505.2,318.4,-0.7,1.8,2471.273,13.29,0.017,149.0
2022-11-07T04:25:03,42.805,6.029,0.01,-0.017,-0.007,101.0,101.0,101.0,13.3,1505.2,318.1,-0.8,1.9,2471.29,13.29,0.019,149.5
2022-11-07T04:28:03,42.805,6.029,0.01,-0.008,-0.007,101.0,102.0,101.0,13.3,1505.2,319.4,-0.8,1.8,2471.251,13.29,0.012,128.7
2022-11-07T04:31:03,42.805,6.029,0.003,-0.019,-0.013,101.0,102.0,101.0,13.4,1505.2,333.4,-0.8,1.8,2471.199,13.29,0.019,171.0
2022-11-07T04:34:03,42.805,6.029,0.028,-0.022,-0.018,102.0,103.0,99.0,13.4,1505.2,332.4,-0.7,1.8,2471.217,13.29,0.035,128.2
2022-11-07T04:37:03,42.805,6.029,0.013,-0.038,-0.005,103.0,102.0,101.0,13.4,1505.2,328.2,-0.8,1.8,2471.21,13.29,0.04,161.1
2022-11-07T04:40:03,42.805,6.029,0.009,-0.031,-0.004,102.0,102.0,101.0,13.4,1505.2,331.6,-0.7,1.8,2471.224,13.29,0.032,163.8
2022-11-07T04:43:03,42.805,6.029,0.047,-0.032,0.015,103.0,100.0,101.0,13.4,1505.2,329.4,-0.8,1.8,2471.19,13.29,0.056,124.2
2022-11-07T04:46:03,42.805,6.029,0.013,-0.02,-0.015,103.0,100.0,101.0,13.4,1505.2,333.4,-0.8,1.8,2471.213,13.29,0.023,147.0
2022-11-07T04:49:03,42.805,6.029,0.013,-0.017,0.009,101.0,102.0,101.0,13.3,1505.2,331.6,-0.8,1.8,2471.227,13.29,0.021,142.6
2022-11-07T04:52:03,42.805,6.029,0.017,-0.004,0.013,101.0,102.0,101.0,13.4,1505.2,324.2,-0.8,1.9,2471.207,13.29,0.017,103.2
2022-11-07T04:55:03,42.805,6.029,-0.022,-0.022,0.0,102.0,100.0,102.0,13.3,1505.2,319.3,-0.8,1.8,2471.223,13.29,0.031,225.0
2022-11-07T04:58:03,42.805,6.029,0.02,-0.023,0.008,101.0,102.0,101.0,13.3,1505.2,320.7,-0.7,1.8,2471.191,13.29,0.03,139.0
2022-11-07T05:04:03,42.805,6.029,0.015,-0.023,-0.006,103.0,101.0,100.0,13.3,1505.2,321.9,-0.8,1.8,2471.225,13.28,0.027,146.9
2022-11-07T05:07:03,42.805,6.029,0.012,-0.023,-0.017,103.0,100.0,101.0,13.4,1505.2,329.1,-0.8,1.8,2471.255,13.28,0.025,152.4
2022-11-07T05:10:03,42.805,6.029,-0.003,-0.013,-0.005,103.0,100.0,101.0,13.3,1505.2,323.7,-0.8,1.8,2471.238,13.29,0.013,193.0
2022-11-07T05:13:03,42.805,6.029,0.047,-0.009,0.016,102.0,100.0,101.0,13.4,1505.2,321.5,-0.7,1.8,2471.243,13.29,0.047,100.8
2022-11-07T05:16:03,42.805,6.029,0.0,-0.015,-0.004,101.0,102.0,101.0,13.3,1505.2,328.2,-0.8,1.8,2471.228,13.29,0.015,180.0
2022-11-07T05:19:03,42.805,6.029,0.007,-0.003,0.008,103.0,103.0,100.0,13.4,1505.2,328.9,-0.8,1.8,2471.237,13.29,0.007,113.2
2022-11-07T05:22:03,42.805,6.029,0.015,-0.033,-0.006,102.0,102.0,101.0,13.3,1505.2,333.7,-0.8,1.8,2471.239,13.29,0.036,155.6
2022-11-07T05:25:03,42.805,6.029,0.002,0.0,0.015,101.0,102.0,101.0,13.4,1505.2,316.7,-0.8,1.8,2471.206,13.29,0.002,90.0
2022-11-07T05:28:03,42.805,6.029,0.019,-0.015,0.007,101.0,101.0,101.0,13.4,1505.2,333.7,-0.7,1.8,2471.219,13.29,0.024,128.3
2022-11-07T05:31:03,42.805,6.029,0.001,-0.013,-0.003,102.0,103.0,101.0,13.4,1505.2,335.8,-0.8,1.8,2471.225,13.29,0.013,175.6
2022-11-07T05:34:02,42.805,6.029,0.016,-0.033,-0.03,103.0,102.0,101.0,13.4,1505.2,325.7,-0.8,1.8,2471.214,13.29,0.036,154.1
2022-11-07T05:37:03,42.805,6.029,-0.022,-0.016,-0.037,103.0,102.0,101.0,13.4,1505.2,333.7,-0.8,1.8,2471.253,13.29,0.027,234.0
2022-11-07T05:40:03,42.805,6.029,-0.001,-0.012,-0.01,106.0,102.0,101.0,13.4,1505.2,330.7,-0.7,1.8,2471.243,13.29,0.012,184.8
2022-11-07T05:43:03,42.805,6.029,0.016,-0.019,-0.004,102.0,102.0,100.0,13.4,1505.2,324.5,-0.8,1.8,2471.243,13.29,0.024,139.9
2022-11-07T05:46:03,42.805,6.029,0.014,-0.019,0.004,101.0,102.0,101.0,13.3,1505.2,321.4,-0.8,1.8,2471.226,13.29,0.023,143.6
2022-11-07T05:49:03,42.805,6.029,0.026,-0.001,0.007,102.0,101.0,101.0,13.4,1505.2,319.4,-0.8,1.9,2471.215,13.29,0.026,92.2
2022-11-07T05:52:03,42.805,6.029,0.002,-0.029,-0.012,102.0,102.0,101.0,13.4,1505.2,334.3,-0.7,1.8,2471.212,13.29,0.029,176.1
2022-11-07T05:55:03,42.805,6.029,0.024,-0.02,0.016,102.0,101.0,101.0,13.4,1505.2,325.2,-0.7,1.8,2471.234,13.29,0.031,129.8
2022-11-07T05:58:03,42.805,6.029,0.008,-0.007,0.009,103.0,102.0,100.0,13.4,1505.2,322.1,-0.8,1.8,2471.231,13.29,0.01,131.2
2022-11-07T06:04:03,42.805,6.029,0.008,-0.012,0.001,102.0,102.0,101.0,13.4,1505.2,320.1,-0.8,1.8,2471.273,13.28,0.014,146.3
2022-11-07T06:07:03,42.805,6.029,0.006,-0.024,-0.005,102.0,101.0,101.0,13.4,1505.2,330.6,-0.8,1.8,2471.266,13.28,0.024,166.0
2022-11-07T06:10:03,42.805,6.029,0.003,-0.021,-0.013,101.0,102.0,100.0,13.3,1505.2,335.0,-0.8,1.8,2471.291,13.29,0.021,171.9
2022-11-07T06:13:03,42.805,6.029,0.011,-0.017,-0.021,103.0,103.0,100.0,13.4,1505.2,324.9,-0.7,1.8,2471.255,13.29,0.02,147.1
2022-11-07T06:16:03,42.805,6.029,0.025,-0.027,-0.027,102.0,102.0,101.0,13.3,1505.2,328.6,-0.8,1.8,2471.251,13.29,0.036,137.2
2022-11-07T06:19:03,42.805,6.029,-0.003,-0.004,0.015,102.0,102.0,101.0,13.4,1505.2,335.4,-0.8,1.9,2471.228,13.29,0.005,216.9
2022-11-07T06:22:03,42.805,6.029,0.016,-0.01,0.007,101.0,102.0,101.0,13.4,1505.2,327.7,-0.8,1.8,2471.232,13.29,0.018,122.0
2022-11-07T06:25:03,42.805,6.029,-0.012,-0.01,-0.015,102.0,102.0,101.0,13.4,1505.2,331.8,-0.7,1.8,2471.231,13.29,0.015,230.2
2022-11-07T06:28:03,42.805,6.029,0.033,-0.004,0.003,103.0,101.0,101.0,13.4,1505.2,322.5,-0.8,1.8,2471.242,13.29,0.033,96.9
2022-11-07T06:31:03,42.805,6.029,0.002,-0.022,-0.029,104.0,103.0,101.0,13.4,1505.2,327.5,-0.8,1.8,2471.235,13.29,0.022,174.8
2022-11-07T06:34:03,42.805,6.029,0.006,-0.012,-0.002,104.0,102.0,101.0,13.4,1505.2,327.4,-0.7,1.8,2471.216,13.29,0.013,153.4
2022-11-07T06:37:03,42.805,6.029,0.01,-0.009,0.0,101.0,102.0,102.0,13.3,1505.2,321.1,-0.8,1.8,2471.231,13.29,0.013,132.0
2022-11-07T06:40:03,42.805,6.029,0.014,-0.013,-0.008,102.0,104.0,101.0,13.4,1505.2,321.4,-0.7,1.8,2471.228,13.29,0.019,132.9
2022-11-07T06:43:03,42.805,6.029,-0.004,-0.009,0.018,101.0,103.0,100.0,13.4,1505.2,322.6,-0.8,1.8,2471.234,13.29,0.009,204.0
2022-11-07T06:46:03,42.805,6.029,-0.008,-0.024,-0.014,102.0,102.0,101.0,13.4,1505.2,324.7,-0.8,1.8,2471.263,13.29,0.025,198.4
2022-11-07T06:49:03,42.805,6.029,0.005,-0.028,-0.019,101.0,102.0,101.0,13.4,1505.2,322.6,-0.7,1.9,2471.224,13.29,0.028,169.9
2022-11-07T06:52:03,42.805,6.029,-0.012,-0.015,-0.016,103.0,102.0,100.0,13.4,1505.2,327.1,-0.7,1.8,2471.219,13.29,0.019,218.7
2022-11-07T06:55:03,42.805,6.029,0.0,-0.015,-0.006,103.0,102.0,101.0,13.4,1505.2,323.4,-0.8,1.8,2471.215,13.29,0.015,180.0
2022-11-07T06:58:03,42.805,6.029,0.002,-0.014,0.026,102.0,104.0,101.0,13.4,1505.2,317.6,-0.8,1.8,2471.268,13.29,0.014,171.9
2022-11-07T07:04:03,42.805,6.029,-0.024,-0.013,0.015,103.0,101.0,101.0,13.3,1505.2,331.5,-0.8,1.8,2471.284,13.28,0.027,241.6
2022-11-07T07:07:03,42.805,6.029,-0.013,-0.006,0.006,101.0,102.0,101.0,13.4,1505.2,332.4,-0.8,1.8,2471.267,13.29,0.014,245.2
2022-11-07T07:10:03,42.805,6.029,0.005,-0.014,0.004,102.0,101.0,101.0,13.4,1505.2,323.7,-0.8,1.8,2471.233,13.29,0.014,160.4
2022-11-07T07:13:03,42.805,6.029,-0.005,0.0,-0.001,104.0,102.0,101.0,13.3,1505.2,328.6,-0.8,1.8,2471.197,13.29,0.005,270.0
2022-11-07T07:16:03,42.805,6.029,0.004,-0.016,-0.003,103.0,103.0,101.0,13.4,1505.2,316.7,-0.8,1.8,2471.258,13.29,0.016,166.0
2022-11-07T07:19:03,42.805,6.029,0.01,-0.002,-0.019,102.0,102.0,101.0,13.4,1505.2,321.5,-0.8,1.8,2471.236,13.29,0.01,101.3
2022-11-07T07:22:03,42.805,6.029,0.025,-0.032,0.037,103.0,102.0,101.0,13.3,1505.2,323.5,-0.7,1.8,2471.21,13.29,0.04,142.0
2022-11-07T07:25:03,42.805,6.029,-0.006,0.018,0.021,103.0,103.0,101.0,13.3,1505.2,321.5,-0.8,1.8,2471.228,13.29,0.018,341.6
2022-11-07T07:28:03,42.805,6.029,0.024,-0.024,0.004,101.0,104.0,102.0,13.4,1505.2,329.4,-0.7,1.8,2471.234,13.29,0.033,135.0
2022-11-07T07:31:03,42.805,6.029,-0.014,0.0,-0.013,103.0,103.0,102.0,13.3,1505.2,328.2,-0.7,1.8,2471.207,13.29,0.014,270.0
2022-11-07T07:34:03,42.805,6.029,0.005,-0.021,-0.003,103.0,103.0,103.0,13.4,1505.2,329.0,-0.8,1.8,2471.248,13.29,0.021,166.6
2022-11-07T07:37:03,42.805,6.029,0.01,0.0,-0.016,103.0,103.0,102.0,13.4,1505.2,320.9,-0.7,1.8,2471.215,13.29,0.01,90.0
2022-11-07T07:40:03,42.805,6.029,-0.008,-0.01,-0.002,104.0,100.0,101.0,13.3,1505.2,329.4,-0.7,1.8,2471.188,13.29,0.012,218.7
2022-11-07T07:43:03,42.805,6.029,0.005,-0.026,0.025,103.0,102.0,102.0,13.4,1505.2,328.5,-0.8,1.8,2471.223,13.29,0.026,169.1
2022-11-07T07:46:03,42.805,6.029,-0.009,-0.014,0.028,103.0,102.0,101.0,13.4,1505.2,322.5,-0.7,1.8,2471.217,13.29,0.016,212.7
2022-11-07T07:49:03,42.805,6.029,0.034,0.001,0.017,102.0,104.0,102.0,13.4,1505.2,329.4,-0.7,1.8,2471.202,13.29,0.034,88.3
2022-11-07T07:52:03,42.805,6.029,-0.001,-0.016,-0.002,103.0,102.0,101.0,13.3,1505.2,325.9,-0.8,1.8,2471.236,13.29,0.016,183.6
2022-11-07T07:55:03,42.805,6.029,0.005,-0.02,-0.022,103.0,103.0,101.0,13.4,1505.2,319.3,-0.7,1.8,2471.201,13.29,0.02,166.0
2022-11-07T07:58:03,42.805,6.029,0.015,-0.02,-0.005,103.0,103.0,101.0,13.4,1505.2,323.2,-0.7,1.8,2471.2,13.29,0.025,143.1
2022-11-07T08:04:03,42.805,6.029,-0.005,-0.019,0.041,102.0,103.0,102.0,13.4,1505.2,332.0,-0.8,1.8,2471.262,13.28,0.019,194.7
2022-11-07T08:07:03,42.805,6.029,0.003,-0.007,-0.002,103.0,102.0,101.0,13.4,1505.2,331.6,-0.7,1.9,2471.238,13.28,0.007,156.8
2022-11-07T08:10:03,42.805,6.029,0.014,-0.035,-0.012,102.0,102.0,102.0,13.4,1505.2,322.8,-0.7,1.8,2471.246,13.29,0.037,158.2
2022-11-07T08:13:03,42.805,6.029,0.0,-0.037,-0.021,103.0,103.0,101.0,13.4,1505.2,328.9,-0.7,1.8,2471.233,13.29,0.037,180.0
2022-11-07T08:16:03,42.805,6.029,0.014,-0.008,0.031,103.0,101.0,103.0,13.3,1505.2,320.2,-0.8,1.8,2471.2,13.29,0.016,119.7
2022-11-07T08:19:03,42.805,6.029,0.017,-0.022,-0.003,104.0,103.0,103.0,13.3,1505.2,321.3,-0.8,1.9,2471.204,13.29,0.027,142.3
2022-11-07T08:22:03,42.805,6.029,0.024,-0.013,-0.013,102.0,104.0,102.0,13.4,1505.2,328.6,-0.7,1.8,2471.194,13.29,0.027,118.4
2022-11-07T08:25:03,42.805,6.029,0.013,-0.033,-0.036,103.0,102.0,102.0,13.4,1505.2,334.7,-0.8,1.8,2471.217,13.29,0.035,158.5
2022-11-07T08:28:03,42.805,6.029,0.027,-0.015,0.01,102.0,103.0,101.0,13.4,1505.2,321.7,-0.8,1.8,2471.219,13.29,0.03,119.1
2022-11-07T08:31:03,42.805,6.029,0.009,-0.021,-0.013,102.0,102.0,101.0,13.3,1505.2,330.6,-0.8,1.8,2471.189,13.29,0.022,156.8
2022-11-07T08:34:03,42.805,6.029,-0.016,-0.016,-0.005,101.0,103.0,101.0,13.4,1505.2,317.8,-0.8,1.8,2471.214,13.29,0.022,225.0
2022-11-07T08:37:03,42.805,6.029,-0.008,0.002,0.026,102.0,102.0,102.0,13.3,1505.2,332.8,-0.7,1.8,2471.2,13.29,0.008,284.0
2022-11-07T08:40:03,42.805,6.029,0.012,-0.033,-0.004,102.0,103.0,101.0,13.3,1505.2,333.4,-0.7,1.8,2471.2,13.29,0.035,160.0
2022-11-07T08:43:03,42.805,6.029,0.023,-0.021,0.014,103.0,102.0,102.0,13.3,1505.2,333.4,-0.7,1.8,2471.187,13.29,0.031,132.4
2022-11-07T08:46:03,42.805,6.029,0.02,-0.009,-0.005,103.0,102.0,100.0,13.4,1505.2,328.4,-0.7,1.8,2471.2,13.29,0.021,114.2
2022-11-07T08:49:03,42.805,6.029,0.007,-0.002,0.019,102.0,103.0,102.0,13.4,1505.2,332.8,-0.8,1.8,2471.194,13.29,0.007,105.9
2022-11-07T08:52:03,42.805,6.029,0.018,-0.032,-0.013,102.0,102.0,101.0,13.4,1505.2,334.1,-0.8,1.8,2471.184,13.29,0.036,150.6
2022-11-07T08:55:03,42.805,6.029,0.003,-0.012,-0.041,102.0,103.0,102.0,13.3,1505.2,321.8,-0.7,1.8,2471.176,13.29,0.012,166.0
2022-11-07T08:58:03,42.805,6.029,-0.018,-0.014,-0.002,102.0,102.0,102.0,13.4,1505.2,330.3,-0.8,1.8,2471.16,13.29,0.022,232.1
2022-11-07T09:04:03,42.805,6.029,0.004,-0.019,0.02,103.0,103.0,101.0,13.4,1505.2,330.0,-0.8,1.8,2471.241,13.28,0.019,168.1
2022-11-07T09:07:03,42.805,6.029,0.025,-0.022,-0.011,102.0,101.0,101.0,13.4,1505.2,320.1,-0.8,1.8,2471.198,13.28,0.033,131.3
2022-11-07T09:10:03,42.805,6.029,-0.007,0.002,-0.032,102.0,101.0,100.0,13.4,1505.2,316.7,-0.8,1.8,2471.185,13.28,0.007,285.9
2022-11-07T09:13:03,42.805,6.029,-0.006,-0.019,0.012,102.0,102.0,101.0,13.4,1505.2,320.7,-0.8,1.9,2471.202,13.29,0.019,197.5
2022-11-07T09:16:03,42.805,6.029,0.002,-0.013,-0.01,103.0,102.0,101.0,13.4,1505.2,319.6,-0.8,1.9,2471.191,13.29,0.013,171.3
2022-11-07T09:19:03,42.805,6.029,0.008,-0.024,0.008,101.0,103.0,101.0,13.4,1505.2,335.3,-0.8,1.8,2471.187,13.29,0.025,161.6
2022-11-07T09:22:03,42.805,6.029,0.001,-0.029,0.001,103.0,102.0,102.0,13.3,1505.2,322.9,-0.7,1.8,2471.205,13.29,0.029,178.0
2022-11-07T09:25:03,42.805,6.029,0.025,-0.014,0.04,103.0,103.0,101.0,13.4,1505.2,332.8,-0.7,1.8,2471.212,13.29,0.028,119.3
2022-11-07T09:28:03,42.805,6.029,0.01,-0.025,-0.016,102.0,102.0,101.0,13.4,1505.2,326.1,-0.8,1.8,2471.177,13.29,0.026,158.2
2022-11-07T09:31:03,42.805,6.029,0.03,-0.014,0.02,103.0,103.0,101.0,13.3,1505.2,325.9,-0.8,1.8,2471.187,13.29,0.033,115.0
2022-11-07T09:34:03,42.805,6.029,0.032,0.0,0.018,104.0,101.0,100.0,13.3,1505.2,332.7,-0.8,1.8,2471.176,13.29,0.032,90.0
2022-11-07T09:37:03,42.805,6.029,0.004,-0.022,-0.013,103.0,102.0,102.0,13.4,1505.2,332.0,-0.7,1.8,2471.167,13.29,0.022,169.7
2022-11-07T09:40:03,42.805,6.029,0.015,-0.022,0.009,103.0,101.0,102.0,13.3,1505.2,333.7,-0.8,1.8,2471.149,13.29,0.026,145.7
2022-11-07T09:43:03,42.805,6.029,0.025,-0.013,0.007,101.0,103.0,102.0,13.4,1505.2,327.7,-0.8,1.9,2471.166,13.29,0.028,117.5
2022-11-07T09:46:03,42.805,6.029,0.014,-0.02,-0.012,102.0,103.0,101.0,13.4,1505.2,332.8,-0.8,1.8,2471.169,13.29,0.024,145.0
2022-11-07T09:49:03,42.805,6.029,0.006,-0.016,-0.009,102.0,102.0,101.0,13.4,1505.2,327.9,-0.7,1.8,2471.202,13.29,0.017,159.4
2022-11-07T09:52:03,42.805,6.029,-0.011,-0.011,-0.019,102.0,102.0,102.0,13.3,1505.2,320.2,-0.8,1.8,2471.197,13.29,0.015,225.0
2022-11-07T09:55:03,42.805,6.029,-0.003,-0.021,-0.022,102.0,103.0,101.0,13.3,1505.2,335.4,-0.7,1.8,2471.162,13.29,0.021,188.1
2022-11-07T09:58:03,42.805,6.029,0.028,-0.031,0.013,102.0,102.0,101.0,13.4,1505.2,328.7,-0.8,1.8,2471.168,13.29,0.041,137.9
2022-11-07T10:04:03,42.805,6.029,0.015,-0.032,-0.024,103.0,101.0,101.0,13.3,1505.2,327.2,-0.8,1.8,2471.22,13.28,0.035,154.9
2022-11-07T10:07:03,42.805,6.029,0.03,-0.017,0.008,103.0,103.0,101.0,13.4,1505.2,330.0,-0.7,1.8,2471.156,13.28,0.034,119.5
2022-11-07T10:10:03,42.805,6.029,0.013,-0.006,-0.003,103.0,102.0,101.0,13.4,1505.2,321.0,-0.8,1.8,2471.176,13.28,0.014,114.8
2022-11-07T10:13:03,42.805,6.029,0.014,-0.002,0.017,103.0,101.0,101.0,13.3,1505.2,318.9,-0.8,1.8,2471.173,13.28,0.014,98.1
2022-11-07T10:16:03,42.805,6.029,0.012,-0.006,0.004,103.0,102.0,102.0,13.4,1505.2,333.7,-0.8,1.8,2471.173,13.29,0.013,116.6
2022-11-07T10:19:03,42.805,6.029,0.019,-0.025,0.0,103.0,102.0,101.0,13.3,1505.2,329.9,-0.8,1.8,2471.154,13.29,0.031,142.8
2022-11-07T10:22:03,42.805,6.029,-0.01,-0.018,-0.004,102.0,102.0,100.0,13.3,1505.2,331.0,-0.8,1.8,2471.16,13.29,0.02,209.1
2022-11-07T10:25:03,42.805,6.029,0.003,-0.033,0.012,104.0,101.0,100.0,13.4,1505.2,331.2,-0.8,1.8,2471.167,13.29,0.033,174.8
2022-11-07T10:28:03,42.805,6.029,0.023,-0.01,0.038,101.0,102.0,101.0,13.4,1505.2,332.0,-0.8,1.8,2471.143,13.29,0.025,113.5
2022-11-07T10:31:03,42.805,6.029,0.019,-0.014,-0.025,102.0,102.0,101.0,13.3,1505.2,323.9,-0.7,1.8,2471.168,13.29,0.023,126.4
2022-11-07T10:34:03,42.805,6.029,0.018,-0.007,0.027,102.0,103.0,101.0,13.3,1505.2,319.8,-0.8,1.8,2471.135,13.29,0.019,111.2
2022-11-07T10:37:03,42.805,6.029,0.021,-0.017,0.031,102.0,103.0,101.0,13.3,1505.2,319.6,-0.8,1.8,2471.117,13.29,0.027,129.0
2022-11-07T10:40:03,42.805,6.029,0.027,-0.011,0.002,102.0,102.0,101.0,13.4,1505.2,321.1,-0.7,1.8,2471.129,13.29,0.029,112.2
2022-11-07T10:43:03,42.805,6.029,0.016,-0.019,0.01,103.0,102.0,100.0,13.4,1505.2,333.4,-0.7,1.8,2471.126,13.29,0.024,139.9
2022-11-07T10:46:03,42.805,6.029,0.045,-0.026,-0.007,101.0,102.0,101.0,13.4,1505.2,320.5,-0.7,1.8,2471.125,13.29,0.051,120.0
2022-11-07T10:49:03,42.805,6.029,0.024,-0.012,0.025,103.0,102.0,100.0,13.4,1505.2,318.9,-0.8,1.8,2471.075,13.29,0.026,116.6
2022-11-07T10:52:03,42.805,6.029,0.039,-0.009,0.004,103.0,103.0,100.0,13.4,1505.2,318.9,-0.7,1.8,2471.157,13.29,0.04,103.0
2022-11-07T10:55:03,42.805,6.029,0.004,-0.033,-0.005,102.0,102.0,101.0,13.3,1505.2,331.3,-0.7,1.8,2471.132,13.29,0.033,173.1